Location: ???? ???? ?????
(31.2680°N, 31.7283°E)
Time: 04:04:39
(UTC+00:00)

Cosmos 1812 Rocket - Pass Details

Date: 13 July 2020
Orbit: 605 x 633 km, 82.5° (Epoch: 11 August)

Event Time Altitude Azimuth Distance (km) Brightness Sun altitude
Rises 17:45:34 0° 352° (N) 2,862 7.6 -9.5°
Reaches altitude 10° 17:47:48 10° 350° (N) 1,956 6.8 -9.9°
Maximum altitude 17:52:06 77° 265° (W) 626 3.7 -10.6°
Drops below altitude 10° 17:56:25 10° 180° (S) 1,951 5.8 -11.4°
Enters shadow 17:58:13 - 179° (S) 2,688 6.5 -11.7°
